Date,TemperatureHighF,TemperatureAvgF,TemperatureLowF,DewpointHighF,DewpointAvgF,DewpointLowF,HumidityHigh,HumidityAvg,HumidityLow,PressureMaxIn,PressureMinIn,WindSpeedMaxMPH,WindSpeedAvgMPH,GustSpeedMaxMPH,PrecipitationSumIn
2013-2-1,32,30,27,21,14,9,78,51,40,30.19,30.01,27,14,59,0.00
2013-2-2,42,34,27,14,7,-2,52,34,17,30.29,30.17,25,10,48,0.00
2013-2-3,45,37,27,6,-4,-23,40,19,5,30.22,29.83,23,10,48,0.00
2013-2-4,38,34,31,11,2,-4,38,26,19,29.89,29.80,31,13,60,0.00
2013-2-5,50,39,32,21,16,10,57,39,27,29.98,29.75,24,8,55,0.00
2013-2-6,42,36,26,27,19,14,93,52,32,29.95,29.68,20,4,33,0.00
2013-2-7,38,26,16,19,11,-1,90,54,32,30.14,29.95,9,3,22,0.02
2013-2-8,43,31,19,16,1,-7,47,29,15,30.07,29.68,7,2,15,0.01
2013-2-9,35,25,14,21,16,10,92,71,40,29.69,29.45,12,3,26,0.00
2013-2-10,23,18,12,14,10,5,90,71,54,30.12,29.53,18,4,38,0.00
2013-2-11,21,10,0,14,6,-4,89,83,62,30.27,30.12,5,1,15,0.00
2013-2-12,32,20,12,5,-2,-10,60,39,20,30.28,30.15,15,5,27,0.00
2013-2-13,30,26,20,13,8,4,55,48,42,30.16,30.01,33,18,63,0.00
2013-2-14,29,20,10,16,11,7,89,69,43,30.31,30.01,17,5,45,0.00
2013-2-15,27,20,8,14,9,4,91,63,37,30.47,30.31,26,9,47,0.00
2013-2-16,40,33,26,13,9,2,50,37,23,30.38,29.93,35,19,61,0.00
2013-2-17,47,38,24,13,-2,-18,60,21,7,29.93,29.45,18,8,45,0.00
2013-2-18,25,20,10,8,2,-3,57,45,33,30.16,29.57,24,9,47,0.00
2013-2-19,36,22,8,9,1,-13,62,43,11,30.16,29.85,8,2,18,0.00
2013-2-20,32,20,15,17,11,6,90,67,42,29.85,29.64,7,2,11,0.00
2013-2-21,20,14,7,17,11,4,91,88,84,30.01,29.70,4,1,11,0.00
2013-2-22,25,19,11,16,8,0,92,63,42,30.05,29.93,25,6,60,0.00
2013-2-23,39,26,17,22,10,-1,91,53,35,29.93,29.64,28,10,50,0.00
2013-2-24,20,16,8,18,14,3,92,90,88,30.21,29.69,9,3,19,0.00
2013-2-25,30,19,0,18,8,-3,90,66,39,30.25,29.96,7,2,12,0.07
2013-2-26,26,20,14,19,14,8,89,78,47,30.22,29.84,11,2,26,0.01
2013-2-27,25,17,7,11,2,-5,88,55,31,30.40,30.22,21,6,35,0.00
2013-2-28,28,22,15,12,4,-2,59,47,36,30.42,30.30,25,12,44,0.00